Regional Weather Roundup
Issued by NWS Jackson, KY

Current Version | Previous Version | Text Only | Print | Product List | Glossary On
Versions: 1 2 3 4 5 6 7 8 9 10 11 12 13 14 15 16 17 18 19 20 21 22 23 24 25 26 27 28 29 30 31 32 33 34 35 36 37 38 39 40 41 42 43 44 45 46 47 48 49 50
724 ASUS43 KJKL 191910 RWRJKL EAST KENTUCKY HOURLY WEATHER ROUNDUP NATIONAL WEATHER SERVICE JACKSON KY 300 PM EDT MON APR 19 2021 NOTE: "FAIR" INDICATES FEW OR NO CLOUDS BELOW 12,000 FEET WITH NO SIGNIFICANT WEATHER AND/OR OBSTRUCTIONS TO VISIBILITY. * THESE REPORTS ARE NOT UNDER NWS QUALITY CONTROL AND MAY NOT REPORT WEATHER SUCH AS PRECIPITATION AND FOG. KYZ079-080-083-085-087-088-110-112-115-119-120-192000 ...EASTERN KENTUCKY... CITY SKY/WX TMP DP RH WIND PRES REMARKS JACKSON PTSUNNY 63 36 36 VRB7 29.93S LONDON CLOUDY 63 37 38 VRB5 29.95S SOMERSET* MOSUNNY 61 34 36 W5 29.98S MONTICELLO* SUNNY 61 41 47 NW6 29.99S WILLIAMSBURG* MOCLDY 57 36 44 NW6 29.95F MIDDLESBORO* MOSUNNY 65 39 39 NW3G16 29.95F HARLAN APT* MOCLDY 62 36 38 N3 29.94F PIKE CO APT* N/A 63 38 39 W9G16 29.92S BIG SANDY APT* PTCLDY 65 40 39 SW5 29.92S MOREHEAD APT* PTCLDY 64 36 34 SW10G17 29.94S ASHLAND* PTSUNNY 64 42 44 NW8 29.90F $$ KYZ035-036-041-042-044-050-067-078-099-192000 ...CENTRAL KENTUCKY... CITY SKY/WX TMP DP RH WIND PRES REMARKS MT STERLING* MOSUNNY 64 43 45 W5 29.95S FLEMING/MASON* PTSUNNY 65 40 39 W15 29.92F DANVILLE* MOSUNNY 64 36 34 NW7 29.96S RICHMOND* MOCLDY 66 39 37 W9G18 29.95S LEXINGTON MOSUNNY 63 39 41 SW8 29.93F FRANKFORT PTSUNNY 66 37 34 W8G17 29.92F LOUISVILLE MOSUNNY 69 37 30 W10G22 29.92F LEBANON* N/A 64 41 42 SW7 29.95F GLASGOW* PTSUNNY 65 42 43 W9 29.97F BOWLING GREEN MOSUNNY 68 41 37 SW13G21 29.97F $$ KYZ091>093-OHZ055-061-077-WVZ005-015-034-035-042-192000 ...SOUTHERN OHIO/WEST VIRGINIA... CITY SKY/WX TMP DP RH WIND PRES REMARKS COVINGTON MOSUNNY 65 34 31 W16G23 29.88F COLUMBUS PTSUNNY 63 32 31 SW16G24 29.83F DAYTON MOSUNNY 64 33 31 W18G31 29.86F WILMINGTON MOSUNNY 63 38 39 W22G29 29.86F HUNTINGTON PTSUNNY 63 38 39 NW7 29.89F CHARLESTON PTSUNNY 64 33 31 W9G17 29.88F BECKLEY CLOUDY 57 31 37 W8 29.89F BLUEFIELD PTSUNNY 54 30 40 VRB5 29.91S LOGAN CO APT* MOCLDY 59 34 38 VRB6 29.91S $$ VAZ002-007-008-TNZ017-027-036-066-071-192000 ...SOUTHWEST VIRGINIA/EAST TENNESSEE... CITY SKY/WX TMP DP RH WIND PRES REMARKS WISE* CLOUDY 55 34 44 NW6 29.95S JONESVILLE* N/A 64 37 36 W7 29.95S ABINGDON* CLOUDY 60 29 31 NW12 29.92F BRISTOL MOSUNNY 64 37 36 VRB6 29.93F MORRISTOWN* MOCLDY 63 39 42 W7G14 29.94S SEVIERVILLE* PTCLDY 64 41 42 W8 29.95F KNOXVILLE PTSUNNY 65 41 41 SW7 29.95F LAFOLLETTE* MOCLDY 66 37 34 VRB3 29.97F OAK RIDGE PTSUNNY 67 42 40 VRB5 29.96F CROSSVILLE PTSUNNY 58 40 51 MISG 29.98F NASHVILLE MOSUNNY 68 38 33 VRB5 29.99F $$ ...KEY TO REMARKS... VSB - VISIBILITY IN MILES WCI - WIND CHILL INDEX HX - HEAT INDEX $$

USA.gov is the U.S. government's official web portal to all federal, state and local government web resources and services.